Location: Camps Bay
(33.9517°S, 18.3844°E)
Time: 21:13:34
(UTC+00:00)

SeaSat 1 - Pass Details

Date: 18 January 2020
Orbit: 744 x 748 km, 108.0° (Epoch: 17 February)

Event Time Altitude Azimuth Distance (km) Brightness Sun altitude
Rises 23:59:32 0° 166° (SSE) 3,217 6.8 -33.3°
Reaches altitude 10° 00:01:57 10° 173° (S) 2,286 5.8 -33.2°
Enters shadow 00:05:08 31° 205° (SSW) 1,301 3.9 -33.0°
